sat.trackr.live / text

‹ back to catalog

STARLINK-31121

NORAD 58685 · 2023-211U

PAYLOAD ACTIVE UNKNOWN

§ Identity

Operator
Country
US
Launch date
2023-12-29
Launch site
AFETR
Launch vehicle
Mass (kg)
RCS (m²)

Purposes: comms

External: N2YO · Heavens-Above · Gunter

§ Orbital elements

Epoch: 2026-05-25T00:38:25.084608Z

Period
94.27 min
Inclination
43.0047°
Eccentricity
0.0001291
Mean motion
15.27576714 rev/d
Perigee alt
482.2 km
Apogee alt
483.9 km
Semi-major
6,861.2 km
B*
1.7933e-5
RAAN
13.7962°
Arg perigee
265.0261°
Mean anomaly
95.0443°
Rev number
13,414

§ Raw data

STARLINK-311211 58685U 23211U   26145.02667922  .00000231  00000+0  17933-4 0  99952 58685  43.0047  13.7962 0001291 265.0261  95.0443 15.27576714134148

JSON: /api/v1/satellites/58685 · /tle

For live sub-satellite position, see the globe view (requires WebGL).

§ Visibility from observer

Set your observer location to see the next 7 days of passes ≥ 10°. The values pass through the URL so the page stays shareable.

No JS? Fill the form by hand. The geolocation button needs JavaScript.